Regional Weather Roundup
Issued by NWS State College, PA

Home | Current Version | Previous Version | Text Only | Print | Product List | Glossary On
Versions: 1 2 3 4 5 6 7 8 9 10 11 12 13 14 15 16 17 18 19 20 21 22 23 24 25 26 27 28 29 30 31 32 33 34 35 36 37 38 39 40 41 42 43 44 45 46 47 48 49 50
000
ASUS41 KCTP 201010
RWRCTP

REGIONAL WEATHER ROUNDUP
NATIONAL WEATHER SERVICE STATE COLLEGE PA
600 AM EDT SUN APR 20 2014

Note: "fair" indicates few or no clouds below 12,000 feet with no
significant weather and/or obstructions to visibility.

* = STATION THAT DOES NOT REPORT PRECIPITATION /E.G. RAIN...SNOW...ETC/
    THUNDER OR FOG.

PAZ002>004-007>009-013>016-020>023-029>032-201100-
WESTERN PENNSYLVANIA

CITY           SKY/WX    TMP DP  RH WIND       PRES   REMARKS
ERIE           CLEAR     46  24  42 VRB3      30.33R
MEADVILLE      NOT AVBL
FRANKLIN*      CLEAR     41  23  48 E8        30.35S
NEW CASTLE     FAIR      41  27  57 CALM      30.34R
BEAVER COUNTY  NOT AVBL
BUTLER*        PTCLDY    43  25  49 E7        30.34R
PITTSBURGH INT PTCLDY    43  28  55 CALM      30.31R
PITTSBURGH     PTCLDY    46  25  43 E3        30.31R
INDIANA*       PTCLDY    41  27  56 CALM      30.36R
LATROBE        CLEAR     48  23  37 NE6       30.33R
WASHINGTON CO* PTCLDY    30  27  86 CALM      30.32S
$$

PAZ004>006-010>012-017>019-024>028-033>037-041-042-045-046-049>053-201100-
CENTRAL PENNSYLVANIA

CITY           SKY/WX    TMP DP  RH WIND       PRES   REMARKS
BRADFORD       CLEAR     28  22  78 SE3       30.35S
DUBOIS         CLEAR     39  25  57 E9        30.34S
CLEARFIELD     CLEAR     32  25  75 N6        30.39R
JOHNSTOWN      PTCLDY    39  23  52 E8        30.33R
ALTOONA        PTCLDY    38  27  64 E3        30.37R
STATE COLLEGE  CLEAR     39  27  60 NE7       30.40R
WILLIAMSPORT   CLEAR     33  27  78 NW3       30.43R
SELINSGROVE    PTCLDY    34  29  82 CALM      30.42R
FT INDIANTOWN  NOT AVBL
CAPITAL CITY   MOCLDY    44  29  55 E6        30.40R
HARRISBURG     MOCLDY    47  26  44 E3        30.39R
YORK           MOCLDY    36  31  82 CALM      30.38R
$$

PAZ038>040-043-044-047-048-054-055-060>062-067>071-201100-
EASTERN PENNSYLVANIA

CITY           SKY/WX    TMP DP  RH WIND       PRES   REMARKS
SCRANTON       PTCLDY    39  24  55 NE6       30.41R
MOUNT POCONO   PTCLDY    39  23  52 E12       30.39R
ALLENTOWN      MOCLDY    43  26  51 NE9       30.41R
QUAKERTOWN*    MOCLDY    43  27  52 NE6       30.41R
READING        MOCLDY    46  25  43 NE6       30.39R
LANCASTER      MOCLDY    41  28  60 NE7       30.38R
COATESVILLE    NOT AVBL
POTTSTOWN      CLOUDY    45  27  49 NE7       30.41R
BLUE BELL      CLOUDY    46  30  53 NE7       30.39R
DOYLESTOWN     MOCLDY    45  29  53 CALM      30.40R
WILLOW GROVE   NOT AVBL
NORTH PHILA    CLOUDY    49  31  49 E14       30.42R
PHILADELPHIA   CLOUDY    50  29  44 NE13G22   30.39R
$$



USA.gov is the U.S. government's official web portal to all federal, state and local government web resources and services.